When you browse on this site, cookies collect data to enhance your experience and personalize the content and advertising you see.
Visit our Privacy Policy to learn more. By continuing to use the site, you agree to this use of cookies and data.
  • In United Kingdom
  • List of Countries
  • For 7 days
  • Water Temperature
  • Satellite Maps
  • Weather Map
  • Weather Widgets
  • user-avatar
    Login

    Hourly Weather Roma

    Today, 22 February, Friday

    Time Temperature Precipitation Wind Pressure Humidity
    00:00 +18°C° 0 mm 1 mps 627 mmHg 39%
    01:00 +16°C° 0 mm 2 mps 627 mmHg 42%
    02:00 +16°C° 0 mm 2 mps 627 mmHg 44%
    03:00 +16°C° 0 mm 2 mps 627 mmHg 44%
    04:00 +15°C° 0 mm 1 mps 627 mmHg 43%
    05:00 +15°C° 0 mm 1 mps 626 mmHg 43%
    06:00 +17°C° 0 mm 2 mps 627 mmHg 38%
    07:00 +19°C° 0 mm 2 mps 628 mmHg 33%
    08:00 +21°C° 0 mm 2 mps 629 mmHg 28%
    09:00 +24°C° 0 mm 3 mps 629 mmHg 30%
    10:00 +26°C° 0 mm 4 mps 629 mmHg 32%
    11:00 +28°C° 0 mm 5 mps 630 mmHg 34%
    12:00 +29°C° 0 mm 5 mps 629 mmHg 31%
    13:00 +30°C° 0 mm 6 mps 629 mmHg 27%
    14:00 +32°C° 0 mm 6 mps 629 mmHg 24%
    15:00 +30°C° 0 mm 6 mps 628 mmHg 25%
    16:00 +29°C° 0 mm 5 mps 628 mmHg 26%
    17:00 +29°C° 0 mm 5 mps 627 mmHg 28%
    18:00 +27°C° 0 mm 4 mps 626 mmHg 31%
    19:00 +25°C° 0 mm 3 mps 626 mmHg 34%
    20:00 +23°C° 0 mm 2 mps 625 mmHg 38%
    21:00 +21°C° 0 mm 2 mps 625 mmHg 41%
    22:00 +20°C° 0 mm 2 mps 624 mmHg 44%
    23:00 +19°C° 0 mm 2 mps 624 mmHg 47%

    Tomorrow, 23 February, Saturday

    Time Temperature Precipitation Wind Pressure Humidity
    00:00 +19°C° 0 mm 2 mps 624 mmHg 48%
    01:00 +18°C° 0 mm 2 mps 623 mmHg 50%
    02:00 +18°C° 0 mm 2 mps 623 mmHg 52%
    03:00 +17°C° 0 mm 2 mps 623 mmHg 55%
    04:00 +17°C° 0 mm 2 mps 622 mmHg 58%
    05:00 +16°C° 0 mm 2 mps 622 mmHg 61%
    06:00 +18°C° 0 mm 2 mps 623 mmHg 55%
    07:00 +20°C° 0 mm 2 mps 624 mmHg 49%
    08:00 +23°C° 0 mm 2 mps 625 mmHg 43%
    09:00 +25°C° 0 mm 3 mps 625 mmHg 35%
    10:00 +27°C° 0 mm 4 mps 626 mmHg 27%
    11:00 +30°C° 0 mm 5 mps 626 mmHg 18%
    12:00 +30°C° 0 mm 5 mps 626 mmHg 17%
    13:00 +32°C° 0 mm 6 mps 626 mmHg 16%
    14:00 +33°C° 0 mm 6 mps 626 mmHg 15%
    15:00 +32°C° 0 mm 7 mps 625 mmHg 18%
    16:00 +32°C° 0 mm 7 mps 625 mmHg 20%
    17:00 +30°C° 0 mm 7 mps 624 mmHg 23%
    18:00 +27°C° 0 mm 5 mps 624 mmHg 28%
    19:00 +23°C° 0 mm 4 mps 623 mmHg 34%
    20:00 +21°C° 0 mm 2 mps 623 mmHg 40%
    21:00 +20°C° 0 mm 2 mps 623 mmHg 42%
    22:00 +19°C° 0 mm 2 mps 623 mmHg 45%
    23:00 +19°C° 0 mm 2 mps 624 mmHg 47%

    Day after tomorrow, 24 February, Sunday

    Time Temperature Precipitation Wind Pressure Humidity
    00:00 +18°C° 0 mm 2 mps 623 mmHg 52%
    01:00 +17°C° 0 mm 2 mps 623 mmHg 58%
    02:00 +17°C° 0 mm 2 mps 623 mmHg 63%
    03:00 +16°C° 0 mm 2 mps 622 mmHg 65%
    04:00 +16°C° 0 mm 2 mps 622 mmHg 67%
    05:00 +15°C° 0 mm 2 mps 622 mmHg 69%
    06:00 +19°C° 0 mm 1 mps 623 mmHg 59%
    07:00 +21°C° 0 mm 1 mps 624 mmHg 50%
    08:00 +24°C° 0 mm 1 mps 625 mmHg 41%
    09:00 +26°C° 0 mm 2 mps 626 mmHg 36%
    10:00 +27°C° 0 mm 3 mps 626 mmHg 30%
    11:00 +29°C° 0 mm 4 mps 626 mmHg 25%
    12:00 +30°C° 0 mm 4 mps 626 mmHg 24%
    13:00 +32°C° 0 mm 4 mps 626 mmHg 23%
    14:00 +32°C° 0 mm 5 mps 626 mmHg 21%
    15:00 +32°C° 0 mm 5 mps 625 mmHg 23%
    16:00 +30°C° 0 mm 5 mps 625 mmHg 24%
    17:00 +29°C° 0 mm 5 mps 624 mmHg 25%
    18:00 +27°C° 0.7 mm 4 mps 624 mmHg 39%
    19:00 +23°C° 0.7 mm 4 mps 624 mmHg 52%
    20:00 +20°C° 0.7 mm 3 mps 623 mmHg 65%
    21:00 +19°C° 0 mm 3 mps 624 mmHg 68%
    22:00 +18°C° 0 mm 3 mps 624 mmHg 70%
    23:00 +17°C° 0 mm 3 mps 624 mmHg 73%

    25 February, Monday

    Time Temperature Precipitation Wind Pressure Humidity
    00:00 +16°C° 0 mm 2 mps 624 mmHg 74%
    01:00 +16°C° 0 mm 2 mps 624 mmHg 75%
    02:00 +15°C° 0 mm 2 mps 623 mmHg 76%
    03:00 +15°C° 0 mm 2 mps 623 mmHg 75%
    04:00 +15°C° 0 mm 2 mps 623 mmHg 74%
    05:00 +15°C° 0 mm 2 mps 623 mmHg 73%
    06:00 +18°C° 0 mm 1 mps 624 mmHg 65%
    07:00 +20°C° 0 mm 1 mps 625 mmHg 57%
    08:00 +22°C° 0 mm 1 mps 626 mmHg 49%
    09:00 +24°C° 0 mm 2 mps 627 mmHg 42%
    10:00 +26°C° 0 mm 3 mps 627 mmHg 36%
    11:00 +28°C° 0 mm 3 mps 627 mmHg 29%
    12:00 +28°C° 0 mm 3 mps 627 mmHg 29%
    13:00 +28°C° 0 mm 3 mps 626 mmHg 29%
    14:00 +28°C° 0 mm 3 mps 625 mmHg 29%
    15:00 +28°C° 0 mm 2 mps 625 mmHg 31%
    16:00 +27°C° 0 mm 1 mps 625 mmHg 34%
    17:00 +27°C° 0 mm 1 mps 624 mmHg 37%
    18:00 +25°C° 0.1 mm 1 mps 624 mmHg 43%
    19:00 +22°C° 0.1 mm 1 mps 623 mmHg 49%
    20:00 +20°C° 0.1 mm 1 mps 622 mmHg 55%
    21:00 +20°C° 0.1 mm 1 mps 623 mmHg 57%
    22:00 +19°C° 0.1 mm 1 mps 623 mmHg 60%
    23:00 +18°C° 0.1 mm 2 mps 623 mmHg 62%

    26 February, Tuesday

    Time Temperature Precipitation Wind Pressure Humidity
    00:00 +18°C° 0.1 mm 2 mps 623 mmHg 65%
    01:00 +17°C° 0.1 mm 2 mps 623 mmHg 68%
    02:00 +17°C° 0.1 mm 2 mps 622 mmHg 71%
    03:00 +16°C° 0 mm 2 mps 622 mmHg 73%
    04:00 +16°C° 0 mm 2 mps 622 mmHg 75%
    05:00 +15°C° 0 mm 2 mps 621 mmHg 76%
    06:00 +17°C° 0 mm 2 mps 622 mmHg 70%
    07:00 +19°C° 0 mm 2 mps 623 mmHg 64%
    08:00 +21°C° 0 mm 3 mps 623 mmHg 57%
    09:00 +23°C° 0 mm 4 mps 624 mmHg 52%
    10:00 +25°C° 0 mm 5 mps 624 mmHg 46%
    11:00 +27°C° 0 mm 6 mps 624 mmHg 40%
    12:00 +28°C° 0 mm 7 mps 624 mmHg 33%
    13:00 +29°C° 0 mm 7 mps 623 mmHg 26%
    14:00 +31°C° 0 mm 8 mps 623 mmHg 19%
    15:00 +31°C° 0 mm 8 mps 623 mmHg 18%
    16:00 +29°C° 0 mm 8 mps 623 mmHg 16%
    17:00 +29°C° 0 mm 9 mps 623 mmHg 14%
    18:00 +26°C° 0 mm 7 mps 622 mmHg 20%
    19:00 +23°C° 0 mm 6 mps 622 mmHg 26%
    20:00 +21°C° 0 mm 4 mps 622 mmHg 31%
    21:00 +19°C° 0 mm 3 mps 621 mmHg 38%
    22:00 +18°C° 0 mm 2 mps 621 mmHg 45%
    23:00 +16°C° 0 mm 1 mps 621 mmHg 52%

    27 February, Wednesday

    Time Temperature Precipitation Wind Pressure Humidity
    00:00 +15°C° 0 mm 1 mps 621 mmHg 55%
    01:00 +14°C° 0 mm 0 mps 621 mmHg 59%
    02:00 +13°C° 0 mm 0 mps 620 mmHg 62%
    03:00 +12°C° 0 mm 0 mps 620 mmHg 63%
    04:00 +12°C° 0 mm 0 mps 621 mmHg 64%
    05:00 +11°C° 0 mm 0 mps 621 mmHg 64%
    06:00 +15°C° 0 mm 1 mps 622 mmHg 57%
    07:00 +18°C° 0 mm 1 mps 623 mmHg 50%
    08:00 +20°C° 0 mm 1 mps 624 mmHg 43%
    09:00 +21°C° 0 mm 2 mps 625 mmHg 37%
    10:00 +22°C° 0 mm 3 mps 625 mmHg 30%
    11:00 +25°C° 0 mm 4 mps 626 mmHg 23%
    12:00 +26°C° 0 mm 5 mps 626 mmHg 21%
    13:00 +27°C° 0 mm 5 mps 626 mmHg 18%
    14:00 +28°C° 0 mm 6 mps 626 mmHg 15%
    15:00 +27°C° 0 mm 6 mps 626 mmHg 15%
    16:00 +27°C° 0 mm 6 mps 625 mmHg 15%
    17:00 +26°C° 0 mm 6 mps 625 mmHg 15%
    18:00 +22°C° 0 mm 5 mps 625 mmHg 20%
    19:00 +19°C° 0 mm 3 mps 624 mmHg 24%
    20:00 +16°C° 0 mm 2 mps 624 mmHg 29%
    21:00 +15°C° 0 mm 2 mps 624 mmHg 30%
    22:00 +14°C° 0 mm 1 mps 624 mmHg 31%
    23:00 +13°C° 0 mm 1 mps 624 mmHg 33%
    Show more